Regional Weather Roundup
Issued by NWS Burlington, VT

Home | Current Version | Previous Version | Text Only | Print | Product List | Glossary On
Versions: 1 2 3 4 5 6 7 8 9 10 11 12 13 14 15 16 17 18 19 20 21 22 23 24 25 26 27 28 29 30 31 32 33 34 35 36 37 38 39 40 41 42 43 44 45 46 47 48 49 50
000
ASUS41 KBTV 272030
RWRBTV
VERMONT REGIONAL WEATHER ROUNDUP
NATIONAL WEATHER SERVICE BURLINGTON VT
400 PM EDT THU APR 27 2017

NOTE: "FAIR" INDICATES FEW OR NO CLOUDS BELOW 12,000 FEET WITH NO
SIGNIFICANT WEATHER AND/OR OBSTRUCTIONS TO VISIBILITY.

* THESE REPORTS ARE NOT UNDER NWS QUALITY CONTROL AND/OR DO NOT
  REPORT WEATHER SUCH AS PRECIPITATION AND FOG.

VTZ001>019-272100-
_____VERMONT_____


CITY           SKY/WX    TMP DP  RH WIND       PRES   REMARKS
BURLINGTON     MOSUNNY   78  56  46 S10G20    29.77F
MONTPELIER     CLOUDY    66  56  70 SE12      29.90F
MORRISVILLE    CLOUDY    68  54  60 S9        29.85F
ST. JOHNSBURY*   N/A     71  56  58 MISG      29.83F
LYNDONVILLE*   PTSUNNY   70  55  59 S10G17    29.87F
RUTLAND*       CLOUDY    72  58  61 SE14      29.83F
SPRINGFIELD    CLOUDY    69  55  60 SE7       29.87F
HIGHGATE*      FAIR      77  59  54 S6        29.77F
NEWPORT*       CLOUDY    69  56  64 S7        29.85S
BENNINGTON     SUNNY     73  55  53 S10       29.83F
SUTTON*          N/A     70 N/A N/A MISG        N/A
ISLAND POND*     N/A     73 N/A N/A SW5         N/A
GALLUP MILLS*    N/A     70 N/A N/A MISG        N/A
UNION VILLAGE*   N/A     70 N/A N/A MISG        N/A
MT. MANSFIELD*   N/A     55 N/A N/A E17         N/A

_____LAKE CHAMPLAIN_____


CITY           SKY/WX    TMP DP  RH WIND       PRES   REMARKS
BURTON ISLAND*   N/A     61  52  72 SW10        N/A
COLCHESTER RF*   N/A     64  54  68 S25         N/A
DIAMOND ISL*     N/A     73  55  53 SE16G22     N/A

$$

NYZ007-026>031-035-052-083-087-272100-
_____NORTHERN NEW YORK_____


CITY           SKY/WX    TMP DP  RH WIND       PRES   REMARKS
PLATTSBURGH    SUNNY     75  56  51 SE17G24   29.76F
SARANAC LAKE   SUNNY     78  55  44 SW12      29.75F
MASSENA        SUNNY     80  60  50 E13       29.70F
OGDENSBURG*    FAIR      85  59  41 E6        29.65F
POTSDAM*       SUNNY     82  64  54 NE9       29.67F
STARK FALLS*     N/A     73 N/A N/A SE8         N/A
WATERTOWN      CLOUDY    85  57  38 S9        29.63F
FT DRUM        SUNNY     82  57  42 SE17G25   29.66F
ALBANY         CLOUDY    72  56  57 S12       29.82F
GLENS FALLS    MOSUNNY   74  58  57 S9        29.80F

$$
NHZ002-005-011-272100-
_____NEW HAMPSHIRE_____


CITY           SKY/WX    TMP DP  RH WIND       PRES   REMARKS
LEBANON        PTSUNNY   69  56  62 VRB3      29.86F
MT WASHINGTON  PTSUNNY   48  45  87 S14         N/A
PLYMOUTH       CLOUDY    66  56  71 CALM      29.89S
WHITEFIELD     CLOUDY    72  55  55 SE9       29.86F

$$

_____REGIONAL QUEBEC LOCATIONS_____


CITY           SKY/WX    TMP DP  RH WIND       PRES   REMARKS
MONTREAL       MOSUNNY   77  59  53 E14G21    29.74F
QUEBEC CITY    CLOUDY    43  39  87 E15G28    29.94F
SHERBROOKE     CLOUDY    73  57  56 SE12G18   29.82F

_____REGIONAL ONTARIO LOCATIONS_____


CITY           SKY/WX    TMP DP  RH WIND       PRES   REMARKS
OTTAWA         MOSUNNY   79  61  53 E16       29.67F

______KEY______
VSB  - VISIBILITY IN MILES
WCI  - WIND CHILL INDEX
HX   - HEAT INDEX
$$
NNNN




USA.gov is the U.S. government's official web portal to all federal, state and local government web resources and services.